Sabadell Airport

Jump to: basic info | weather | runways | comments

Related pages: nearby airports | nearby navaids | notams | map

Basic information (top)

Codes: QSA LELL
Location: lon 41.520901, lat 2.105080, elev 485 ft / 148 m msl
Status: small_airport

Weather (top)

Current conditions (rec'd 2014/09/16 17:30Z):

LELL 161730Z 11008KT 080V150 9999 FEW008 FEW024TCU 25/22 Q1010

Airport forecast (rec'd 2014/09/16 15:00Z):

TAF LELL 161400Z 1615/1715 13010KT 9999 SCT025 TX28/1713Z TN18/1706Z 
      TEMPO 1617/1701 3000 TSRA BKN020 FEW050CB 
      BECMG 1618/1620 VRB03KT

Runways (top)

13/31: 2,953 ft (900 m) — surface unknown — not lighted

Latest comments (top)

Great service, easy in & out: Here our expenses for 3 days in ... [read]

great service, great people: So going on a helicopter through spain ... [read]

More... (top)

See also NOTAMs and nearby airports and navaids, or visit the Sabadell Airport page at the main OurAirports website..